EZY927 EGBB-EGJJ

Flight info

Callsign EZY927
Flight time 0h 42m
Altitude 21000
Route CPT Y321 PEPIS Q41 SAM N63 LELNA
Aircraft A320/M-SDE3FGHIRWY/LB1

Departure

Time 2026-05-07 13:08
Airport Birmingham Airport (EGBB)

Arrival

Time 2026-05-07 13:50
Airport Jersey Airport (EGJJ)
Time Latitude Longitude Altitude Speed Heading
2026-05-07 12:56 52.45344 -1.73697 321 ft 0 kts 146°
2026-05-07 13:01 52.45352 -1.73705 323 ft 4 kts 146°
2026-05-07 13:01 52.45369 -1.73724 321 ft 4 kts 151°
2026-05-07 13:01 52.45394 -1.73739 321 ft 4 kts 180°
2026-05-07 13:01 52.45416 -1.73728 322 ft 4 kts 233°
2026-05-07 13:02 52.45410 -1.73744 320 ft 4 kts 236°
2026-05-07 13:02 52.45407 -1.73751 321 ft 0 kts 236°
2026-05-07 13:03 52.45398 -1.73773 321 ft 9 kts 236°
2026-05-07 13:03 52.45380 -1.73816 323 ft 10 kts 236°
2026-05-07 13:04 52.45345 -1.73900 323 ft 8 kts 236°
2026-05-07 13:04 52.45329 -1.73940 323 ft 0 kts 236°
2026-05-07 13:05 52.45320 -1.73961 323 ft 9 kts 236°
2026-05-07 13:05 52.45329 -1.74100 323 ft 24 kts 296°
2026-05-07 13:05 52.45436 -1.74441 322 ft 33 kts 298°
2026-05-07 13:06 52.45578 -1.74690 320 ft 32 kts 326°
2026-05-07 13:06 52.45776 -1.74905 311 ft 36 kts 327°
2026-05-07 13:06 52.45993 -1.75144 305 ft 38 kts 324°
2026-05-07 13:06 52.46187 -1.75364 303 ft 16 kts 326°
2026-05-07 13:07 52.46214 -1.75469 307 ft 7 kts 226°
2026-05-07 13:07 52.46153 -1.75612 310 ft 14 kts 220°
2026-05-07 13:07 52.46054 -1.75546 312 ft 25 kts 146°
2026-05-07 13:07 52.45706 -1.75156 324 ft 94 kts 146°
2026-05-07 13:08 52.44997 -1.74369 355 ft 147 kts 146°
2026-05-07 13:08 52.44161 -1.73455 1001 ft 143 kts 146°
2026-05-07 13:08 52.43332 -1.72551 1670 ft 144 kts 147°
2026-05-07 13:08 52.42436 -1.71551 2043 ft 168 kts 145°
2026-05-07 13:09 52.41405 -1.70412 2458 ft 190 kts 150°
2026-05-07 13:09 52.40084 -1.69688 2901 ft 208 kts 165°
2026-05-07 13:09 52.38663 -1.69116 3667 ft 212 kts 165°
2026-05-07 13:09 52.37280 -1.68208 4476 ft 217 kts 154°
2026-05-07 13:10 52.35916 -1.67104 5292 ft 221 kts 154°
2026-05-07 13:10 52.34527 -1.66026 5978 ft 232 kts 158°
2026-05-07 13:10 52.32961 -1.64954 6396 ft 256 kts 159°
2026-05-07 13:10 52.31260 -1.63849 7049 ft 267 kts 159°
2026-05-07 13:11 52.29514 -1.62728 7911 ft 271 kts 159°
2026-05-07 13:11 52.27749 -1.61590 8826 ft 274 kts 159°
2026-05-07 13:11 52.25972 -1.60437 9736 ft 277 kts 159°
2026-05-07 13:11 52.24164 -1.59291 10567 ft 280 kts 161°
2026-05-07 13:12 52.22309 -1.58276 11375 ft 283 kts 163°
2026-05-07 13:12 52.20420 -1.57326 12167 ft 286 kts 163°
2026-05-07 13:12 52.18503 -1.56388 12963 ft 289 kts 164°
2026-05-07 13:12 52.16565 -1.55439 13749 ft 293 kts 164°
2026-05-07 13:13 52.14606 -1.54475 14450 ft 296 kts 164°
2026-05-07 13:13 52.12626 -1.53493 15124 ft 299 kts 164°
2026-05-07 13:13 52.10622 -1.52494 15785 ft 303 kts 164°
2026-05-07 13:13 52.08595 -1.51477 16460 ft 307 kts 164°
2026-05-07 13:14 52.06543 -1.50447 17121 ft 310 kts 164°
2026-05-07 13:14 52.04466 -1.49409 17773 ft 314 kts 165°
2026-05-07 13:14 52.02362 -1.48357 18400 ft 318 kts 165°
2026-05-07 13:14 52.00234 -1.47292 18978 ft 322 kts 165°
2026-05-07 13:15 51.98087 -1.46215 19560 ft 325 kts 165°
2026-05-07 13:15 51.95919 -1.45128 20143 ft 328 kts 165°
2026-05-07 13:15 51.93726 -1.44029 20734 ft 331 kts 165°
2026-05-07 13:15 51.91512 -1.42920 20998 ft 334 kts 165°
2026-05-07 13:16 51.89258 -1.41793 21057 ft 349 kts 165°
2026-05-07 13:16 51.86879 -1.40607 21060 ft 364 kts 165°
2026-05-07 13:16 51.84439 -1.39390 21064 ft 369 kts 164°
2026-05-07 13:16 51.81980 -1.38165 21058 ft 370 kts 165°
2026-05-07 13:17 51.79517 -1.36940 21049 ft 371 kts 165°
2026-05-07 13:17 51.77048 -1.35716 21058 ft 372 kts 165°
2026-05-07 13:17 51.74574 -1.34493 21054 ft 372 kts 165°
2026-05-07 13:17 51.72098 -1.33269 21055 ft 372 kts 165°
2026-05-07 13:18 51.69624 -1.32046 21060 ft 372 kts 165°
2026-05-07 13:18 51.67152 -1.30825 21050 ft 372 kts 165°
2026-05-07 13:18 51.64678 -1.29603 21055 ft 372 kts 165°
2026-05-07 13:18 51.62205 -1.28381 21059 ft 372 kts 165°
2026-05-07 13:19 51.59732 -1.27161 21054 ft 372 kts 165°
2026-05-07 13:19 51.57258 -1.25949 21057 ft 372 kts 165°
2026-05-07 13:19 51.54780 -1.24739 21052 ft 372 kts 165°
2026-05-07 13:19 51.52304 -1.23528 21060 ft 372 kts 165°
2026-05-07 13:20 51.49804 -1.22479 21048 ft 371 kts 172°
2026-05-07 13:20 51.47281 -1.22139 21048 ft 368 kts 182°
2026-05-07 13:20 51.44725 -1.22328 21047 ft 368 kts 185°
2026-05-07 13:20 51.42169 -1.22541 21056 ft 368 kts 185°
2026-05-07 13:21 51.39613 -1.22752 21048 ft 368 kts 185°
2026-05-07 13:21 51.37056 -1.22964 21043 ft 368 kts 185°
2026-05-07 13:21 51.34498 -1.23177 21042 ft 368 kts 185°
2026-05-07 13:21 51.31941 -1.23385 21043 ft 368 kts 185°
2026-05-07 13:22 51.29381 -1.23587 21048 ft 368 kts 185°
2026-05-07 13:22 51.26820 -1.23786 21052 ft 369 kts 185°
2026-05-07 13:22 51.24258 -1.23988 21050 ft 368 kts 185°
2026-05-07 13:22 51.22529 -1.24127 21050 ft 368 kts 185°
2026-05-07 13:23 51.19975 -1.24404 21053 ft 367 kts 189°
2026-05-07 13:23 51.17488 -1.25268 21048 ft 366 kts 197°
2026-05-07 13:23 51.15064 -1.26305 21048 ft 366 kts 196°
2026-05-07 13:23 51.12605 -1.27349 21051 ft 366 kts 196°
2026-05-07 13:24 51.10145 -1.28384 21050 ft 366 kts 196°
2026-05-07 13:24 51.07683 -1.29417 21053 ft 366 kts 196°
2026-05-07 13:24 51.05219 -1.30451 21055 ft 366 kts 196°
2026-05-07 13:24 51.02757 -1.31483 21060 ft 366 kts 196°
2026-05-07 13:25 51.00291 -1.32516 21058 ft 366 kts 196°
2026-05-07 13:25 50.97833 -1.33545 21057 ft 366 kts 196°
2026-05-07 13:25 50.95395 -1.34709 21056 ft 365 kts 203°
2026-05-07 13:25 50.93111 -1.36426 21058 ft 364 kts 208°
2026-05-07 13:26 50.90852 -1.38244 21057 ft 364 kts 208°
2026-05-07 13:26 50.88588 -1.40058 21059 ft 364 kts 208°
2026-05-07 13:26 50.86327 -1.41862 21055 ft 364 kts 208°
2026-05-07 13:26 50.84065 -1.43663 21058 ft 364 kts 208°
2026-05-07 13:27 50.81800 -1.45463 21062 ft 364 kts 207°
2026-05-07 13:27 50.79538 -1.47259 21068 ft 364 kts 207°
2026-05-07 13:27 50.77280 -1.49050 21067 ft 364 kts 207°
2026-05-07 13:27 50.75011 -1.50846 21069 ft 364 kts 207°
2026-05-07 13:28 50.72749 -1.52638 21065 ft 364 kts 207°
2026-05-07 13:28 50.70486 -1.54433 21063 ft 364 kts 208°
2026-05-07 13:28 50.68226 -1.56224 21068 ft 364 kts 207°
2026-05-07 13:28 50.65960 -1.58015 21066 ft 364 kts 207°
2026-05-07 13:29 50.63699 -1.59800 21056 ft 364 kts 207°
2026-05-07 13:29 50.61435 -1.61586 21062 ft 364 kts 207°
2026-05-07 13:29 50.59174 -1.63367 21064 ft 364 kts 207°
2026-05-07 13:29 50.56917 -1.65144 21066 ft 364 kts 207°
2026-05-07 13:30 50.54652 -1.66923 21067 ft 364 kts 207°
2026-05-07 13:30 50.52388 -1.68697 21065 ft 363 kts 207°
2026-05-07 13:30 50.50126 -1.70464 21067 ft 363 kts 207°
2026-05-07 13:30 50.47861 -1.72236 21068 ft 363 kts 207°
2026-05-07 13:31 50.45599 -1.74010 21070 ft 363 kts 207°
2026-05-07 13:31 50.43341 -1.75781 21070 ft 363 kts 207°
2026-05-07 13:31 50.41079 -1.77556 21070 ft 363 kts 207°
2026-05-07 13:31 50.38819 -1.79329 21067 ft 363 kts 207°
2026-05-07 13:32 50.36560 -1.81094 21068 ft 363 kts 207°
2026-05-07 13:32 50.34323 -1.82830 21069 ft 363 kts 207°
2026-05-07 13:32 50.32059 -1.84580 21071 ft 363 kts 207°
2026-05-07 13:32 50.29797 -1.86329 21069 ft 363 kts 207°
2026-05-07 13:33 50.27534 -1.88082 21071 ft 363 kts 207°
2026-05-07 13:33 50.25275 -1.89836 21071 ft 363 kts 207°
2026-05-07 13:33 50.23015 -1.91590 21072 ft 362 kts 207°
2026-05-07 13:33 50.20757 -1.93338 21068 ft 362 kts 207°
2026-05-07 13:34 50.18500 -1.95083 21070 ft 362 kts 207°
2026-05-07 13:34 50.13983 -1.98567 21065 ft 362 kts 207°
2026-05-07 13:34 50.11726 -2.00303 21062 ft 362 kts 207°
2026-05-07 13:35 50.09468 -2.02037 21063 ft 362 kts 207°
2026-05-07 13:35 50.07212 -2.03769 21062 ft 362 kts 207°
2026-05-07 13:35 50.04954 -2.05504 21063 ft 362 kts 207°
2026-05-07 13:35 50.02699 -2.07232 21058 ft 362 kts 207°
2026-05-07 13:36 50.00443 -2.08963 21060 ft 362 kts 207°
2026-05-07 13:36 49.98144 -2.10550 21058 ft 362 kts 200°
2026-05-07 13:36 49.95705 -2.11536 21057 ft 363 kts 193°
2026-05-07 13:36 49.93239 -2.12371 21050 ft 363 kts 193°
2026-05-07 13:37 49.90748 -2.13222 21040 ft 369 kts 193°
2026-05-07 13:37 49.88258 -2.14071 20523 ft 363 kts 193°
2026-05-07 13:37 49.85804 -2.14905 19597 ft 359 kts 193°
2026-05-07 13:37 49.83374 -2.15731 18723 ft 355 kts 193°
2026-05-07 13:38 49.80973 -2.16550 17816 ft 351 kts 193°
2026-05-07 13:38 49.78602 -2.17358 16889 ft 347 kts 193°
2026-05-07 13:38 49.76257 -2.18153 16001 ft 343 kts 193°
2026-05-07 13:38 49.73971 -2.18926 15154 ft 339 kts 193°
2026-05-07 13:39 49.71647 -2.19713 14307 ft 336 kts 193°
2026-05-07 13:39 49.69419 -2.20522 13464 ft 332 kts 195°
2026-05-07 13:39 49.67206 -2.21460 12601 ft 327 kts 197°
2026-05-07 13:39 49.65066 -2.22441 12087 ft 313 kts 198°
2026-05-07 13:40 49.63039 -2.23394 11690 ft 297 kts 198°
2026-05-07 13:40 49.61109 -2.24294 11289 ft 284 kts 197°
2026-05-07 13:40 49.59257 -2.25141 10897 ft 272 kts 197°
2026-05-07 13:40 49.57466 -2.25950 10522 ft 268 kts 196°
2026-05-07 13:41 49.55680 -2.26748 10214 ft 268 kts 196°
2026-05-07 13:41 49.53875 -2.27550 10128 ft 271 kts 196°
2026-05-07 13:41 49.52063 -2.28356 9978 ft 272 kts 196°
2026-05-07 13:41 49.50227 -2.29175 9453 ft 275 kts 196°
2026-05-07 13:42 49.48410 -2.29983 9078 ft 270 kts 196°
2026-05-07 13:42 49.46611 -2.30777 8499 ft 267 kts 195°
2026-05-07 13:42 49.44832 -2.31562 7785 ft 265 kts 195°
2026-05-07 13:42 49.43072 -2.32340 7215 ft 261 kts 195°
2026-05-07 13:43 49.41333 -2.33107 6715 ft 259 kts 195°
2026-05-07 13:43 49.39589 -2.33875 6201 ft 262 kts 195°
2026-05-07 13:43 49.37840 -2.34643 5750 ft 261 kts 195°
2026-05-07 13:43 49.36092 -2.35412 5326 ft 260 kts 195°
2026-05-07 13:44 49.34350 -2.36179 4828 ft 261 kts 195°
2026-05-07 13:44 49.32626 -2.36939 4440 ft 255 kts 195°
2026-05-07 13:44 49.30927 -2.37687 3750 ft 253 kts 194°
2026-05-07 13:44 49.29301 -2.38402 3559 ft 231 kts 194°
2026-05-07 13:45 49.27837 -2.39046 3507 ft 208 kts 194°
2026-05-07 13:45 49.26508 -2.39633 3437 ft 191 kts 194°
2026-05-07 13:45 49.25300 -2.40165 3381 ft 172 kts 193°
2026-05-07 13:45 49.24190 -2.40655 3280 ft 161 kts 193°
2026-05-07 13:46 49.23128 -2.41120 3204 ft 157 kts 193°
2026-05-07 13:46 49.22060 -2.41317 3130 ft 153 kts 174°
2026-05-07 13:46 49.21041 -2.40887 3092 ft 152 kts 153°
2026-05-07 13:46 49.20203 -2.39917 3019 ft 153 kts 134°
2026-05-07 13:47 49.19630 -2.38540 2863 ft 156 kts 117°
2026-05-07 13:47 49.19393 -2.36929 2540 ft 161 kts 91°
2026-05-07 13:47 49.19504 -2.35231 2280 ft 159 kts 88°
2026-05-07 13:47 49.19627 -2.33587 2070 ft 148 kts 88°
2026-05-07 13:48 49.19749 -2.32079 1851 ft 139 kts 88°
2026-05-07 13:48 49.19867 -2.30638 1659 ft 135 kts 88°
2026-05-07 13:48 49.19985 -2.29218 1472 ft 135 kts 87°
2026-05-07 13:48 49.20104 -2.27795 1293 ft 134 kts 87°
2026-05-07 13:49 49.20222 -2.26392 1099 ft 132 kts 87°
2026-05-07 13:49 49.20339 -2.25001 892 ft 133 kts 88°
2026-05-07 13:49 49.20457 -2.23610 706 ft 133 kts 86°
2026-05-07 13:49 49.20573 -2.22211 542 ft 132 kts 87°
2026-05-07 13:50 49.20691 -2.20835 342 ft 130 kts 87°
2026-05-07 13:50 49.20797 -2.19559 286 ft 98 kts 82°
2026-05-07 13:50 49.20848 -2.18942 284 ft 37 kts 83°
2026-05-07 13:50 49.20875 -2.18584 282 ft 25 kts 81°
2026-05-07 13:51 49.20848 -2.18381 283 ft 19 kts 157°
2026-05-07 13:51 49.20738 -2.18477 284 ft 21 kts 249°
2026-05-07 13:51 49.20717 -2.18707 284 ft 22 kts 263°
2026-05-07 13:51 49.20697 -2.18945 284 ft 23 kts 263°
2026-05-07 13:52 49.20680 -2.19203 284 ft 25 kts 277°
2026-05-07 13:52 49.20705 -2.19471 284 ft 26 kts 261°
2026-05-07 13:52 49.20645 -2.19663 284 ft 18 kts 200°
2026-05-07 13:52 49.20583 -2.19650 288 ft 4 kts 158°
2026-05-07 13:53 49.20564 -2.19638 284 ft 1 kts 159°
2026-05-07 13:53 49.20562 -2.19637 284 ft 0 kts 159°